Regional Weather Roundup
Issued by NWS

Home | Current Version | Previous Version | Text Only | Print | Product List | Glossary On
Versions: 1 2 3 4 5 6 7 8 9 10 11 12 13 14 15 16 17 18 19 20 21 22 23 24 25 26 27
000
ASUS42 KTBW 220516
RWRFL
FLORIDA REGIONAL WEATHER ROUNDUP
NATIONAL WEATHER SERVICE TAMPA BAY RUSKIN FL
100 AM EDT SUN OCT 22 2017

NOTE: "FAIR" INDICATES FEW OR NO CLOUDS BELOW 12,000 FEET WITH NO
SIGNIFICANT WEATHER AND/OR OBSTRUCTIONS TO VISIBILITY.

FLZ001>010-012>015-112-114-115-220600-
PANHANDLE FLORIDA

CITY           SKY/WX    TMP DP  RH WIND       PRES   REMARKS
PENSACOLA      CLEAR     74  67  78 NE5       30.11F
PENSACOLA NAS  CLEAR     78  67  68 E10       30.11F
MILTON NAS     PTCLDY    66  66 100 NE3       30.13F
CRESTVIEW      MOCLDY    67  63  87 E5        30.16F
DUKE FIELD     FAIR      68  64  88 E3          N/A
VALPARAISO     PTCLDY    73  64  73 E6        30.13F
MARY ESTHER    CLEAR     72  67  83 E5        30.12S
PANAMA CITY    FAIR      70  62  76 E6        30.14F
TYNDALL AFB    PTCLDY    73  63  72 E8        30.14F
APALACHICOLA   PTCLDY    77  71  82 E9G17     30.14F

STATION/POSITION SKY/WX   TEMP    WIND        PRES    WAVE   SWELL
                          AIR SEA DIR/SP/G            HT/PER HT/PER
                          (F)     (DEG/KT/KT) (MB)    (FT/S) (FT/S)
30.1N   87.6W                 79  160/ 19/ 23 1018.7F   7/ 7
29.2N   88.2W              80 81  100/ 17/ 23 1018.2
28.8N   86.0W              81 81   90/ 21/ 25 1018.2F   5/ 6   2/ 8
PANAMA CITY BEAC           74 78   90/ 10/ 15 1021.0F
TOWER C                    77     110/ 21/ 23 1020.7F
28.5N   84.5W              80 80  100/ 21/ 23 1018.7F   6/ 6

$$
FLZ011-016>038-118-127-128-134-139-239-220600-
NORTH FLORIDA

CITY           SKY/WX    TMP DP  RH WIND       PRES   REMARKS
MARIANNA       PTCLDY    69  62  78 E5        30.17S
TALLAHASSEE    PTCLDY    71  65  81 E8        30.17F
PERRY          CLOUDY    71  65  81 E3        30.18F
LIVE OAK       CLOUDY    72  70  94 CALM      30.20F
CROSS CITY     CLOUDY    71  66  82 NE6       30.21F
LAKE CITY      MOCLDY    68  68 100 CALM      30.20S
GAINESVILLE    MOCLDY    70  68  93 NE5       30.20F
WILLISTON      CLEAR     73  72  94 NE6       30.17F
PALATKA        MOCLDY    72  72 100 E6        30.19F
MAYPORT NAS    CLOUDY    76  72  87 S9        30.19F
JACKSONVILLE   MOCLDY    76  70  82 E7        30.19F
JAX NAS        CLOUDY    76  70  82 SE16      30.20F
JAX CECIL      CLOUDY    72  72 100 CALM      30.19F
ST AUGUSTINE   LGT RAIN  73  71  93 S8        30.20F
PALM COAST     FAIR      73  70  92 E3        30.17F

STATION/POSITION SKY/WX   TEMP    WIND        PRES    WAVE   SWELL
                          AIR SEA DIR/SP/G            HT/PER HT/PER
                          (F)     (DEG/KT/KT) (MB)    (FT/S) (FT/S)
SHELL POINT      NOT AVBL
KEATON BEACH               71      60/  8/ 10 1020.9F
CEDAR KEY                  73      70/ 12/ 14 1020.9F
FERNANDINA                 78 76   90/  5/  9 1023.4F
30.7N   81.3W                 77                N/A     4/ 5
MAYPORT                    75 77  170/  7/ 11 1023.0F
31.4N   80.9W              78 77  110/ 14/ 17 1023.0F   4/ 9   2/ 9
ST AUGUSTINE               73 78   80/  4/  4 1022.3F

$$
FLZ040-043>046-052-053-057-058-063-144-220600-
INTERIOR CENTRAL FLORIDA

CITY           SKY/WX    TMP DP  RH WIND       PRES   REMARKS
OCALA          MOCLDY    71  70  96 CALM      30.17F
THE VILLAGES     N/A     72  72 100 CALM      30.06F
LEESBURG       PTCLDY    75  72  90 E6        30.16F
SANFORD        PTCLDY    73  69  87 NE6       30.15F
ORLANDO INTL   CLOUDY    73  72  96 NE6       30.15F
KISSIMMEE      PTCLDY    75  72  88 NE7       30.15F
WINTER HAVEN     N/A    N/A N/A N/A MISG      30.14F
LAKELAND       PTCLDY    72  70  94 E7        30.13F
BARTOW         FAIR      73  72  94 E8        30.13F
SEBRING        FAIR      75  70  85 E6        30.12F
OKEECHOBEE     MOCLDY    73  72  94 E5        30.11F

$$
FLZ041-047-054-059-064-141-147-220600-
EAST CENTRAL FLORIDA

CITY           SKY/WX    TMP DP  RH WIND       PRES   REMARKS
DAYTONA BEACH  CLOUDY    74  74 100 E7        30.16F
DELAND         MOCLDY    72  70  94 N6        30.16F
JFK SPACE CTR  PTCLDY    79  74  87 E9        30.13F
CAPE CANAVERAL PTCLDY    79  72  78 E10G18    30.13F
PATRICK AFB    PTCLDY    80  72  77 E15G23    30.12F
MELBOURNE      PTCLDY    81  72  74 E14       30.13F
VERO BEACH     CLOUDY    80  73  79 E13       30.12F
FT PIERCE      CLOUDY    78  75  90 E12       30.11F
STUART         MOCLDY    81  77  89 E12G18    30.12F

STATION/POSITION SKY/WX   TEMP    WIND        PRES    WAVE   SWELL
                          AIR SEA DIR/SP/G            HT/PER HT/PER
                          (F)     (DEG/KT/KT) (MB)    (FT/S) (FT/S)
28.5N   80.2W              81 83   80/ 17/ 21 1020.4
TRIDENT PIER               79 80   70/ 11/ 14 1022.2F
28.4N   80.5W                 80                N/A     5/ 7
27.5N   80.2W                 80                N/A     6/ 6

$$
FLZ050-056-061-142-242-148-248-149-249-151-251-155-255-
160-260-220600-
WEST CENTRAL FLORIDA

CITY           SKY/WX    TMP DP  RH WIND       PRES   REMARKS
CRYSTAL RIVER  FAIR      72  70  94 NE6       30.14F
INVERNESS      FAIR      72  72 100 NE3       30.15F
BROOKSVILLE    MOCLDY    74  70  87 NE8       30.14F
CLEARWATER AIR FAIR      73  68  83 E6        30.10F
ST PETE CLEARW CLOUDY    78  71  79 E9        30.11F
TAMPA INTL     CLOUDY    77  69  76 E8        30.11F
TAMPA EXEC     MOCLDY    72  68  88 E6        30.12F
PLANT CITY     PTCLDY    75  70  83 E6        30.14F
MACDILL AFB    CLEAR     77  70  78 VRB6      30.11F
PETER O KNIGHT MOCLDY    73  72  94 E9        30.11F
ST PETERSBURG  MOCLDY    77  71  82 E16       30.09F
SARASOTA       PTCLDY    75  69  81 E12       30.07F
VENICE         FAIR      75  70  83 E9        30.10S

STATION/POSITION SKY/WX   TEMP    WIND        PRES    WAVE   SWELL
                          AIR SEA DIR/SP/G            HT/PER HT/PER
                          (F)     (DEG/KT/KT) (MB)    (FT/S) (FT/S)
CLEARWATER BEACH           77 78   80/  6/ 10 1019.8F
MIDDLE TAMPA BAY           76      90/ 15/ 16 1019.3F
VENICE                     75 81   60/  8/ 10 1018.8F

$$
FLZ066-069-070-075>078-162-262-165-265-220600-
SOUTHWEST FLORIDA AND KEYS

CITY           SKY/WX    TMP DP  RH WIND       PRES   REMARKS
PUNTA GORDA    CLOUDY    74  71  91 E8        30.10F
FT MYERS       CLOUDY    74  73  97 E8        30.07F
SOUTHWEST INTL CLOUDY    76  75  97 NE8       30.08F
NAPLES         CLOUDY    77  74  90 NE9       30.06F
MARCO ISLAND     N/A     77  73  88 NE6       30.07F
IMMOKALEE      FAIR      77  73  88 E9        30.08F
MARATHON       PTCLDY    81  74  79 SE14G21   30.03F
KEY WEST NAS   LGT RAIN N/A N/A N/A MISG      30.02F
KEY WEST INTL  CLOUDY    82  77  84 SE18      30.02F

STATION/POSITION SKY/WX   TEMP    WIND        PRES    WAVE   SWELL
                          AIR SEA DIR/SP/G            HT/PER HT/PER
                          (F)     (DEG/KT/KT) (MB)    (FT/S) (FT/S)
NAPLES                        81   70/  6/  8 1018.1F
DRY TORTUGAS               81      90/ 19/ 21 1016.1F
SAND KEY                   83                 1016.9F
MOLASSES REEF              82 83  150/ 15/ 17 1017.7F

$$
FLZ067-068-071>074-168-172>174-220600-
SOUTHEAST FLORIDA

CITY           SKY/WX    TMP DP  RH WIND       PRES   REMARKS
W PALM BEACH   MOCLDY    81  76  84 E15       30.10F
FT LAUDER-EXEC CLOUDY    81  75  82 E13G24    30.08F
FT LAUDERDALE  MOCLDY    81  75  82 SE17      30.07F
POMPANO BEACH  CLOUDY    83 N/A N/A E16       30.08F
PEMBROKE PINES LGT RAIN  81  76  84 E12       30.09S
OPA LOCKA      CLOUDY    79  75  87 E9        30.08F
MIAMI          MOCLDY    83  75  77 E15       30.07S
WEST KENDALL   MOCLDY    81  74  79 SE12      30.06F
HOMESTEAD      MOCLDY    82  78  86 E12       30.05F

STATION/POSITION SKY/WX   TEMP    WIND        PRES    WAVE   SWELL
                          AIR SEA DIR/SP/G            HT/PER HT/PER
                          (F)     (DEG/KT/KT) (MB)    (FT/S) (FT/S)
PORT EVERGLADES            82     110/  7/ 12 1018.5F
VIRGINIA KEY               83 83  100/ 12/ 16 1018.0F
LAKE WORTH                 81 81   90/ 15/ 18 1020.0F
FOWEY ROCKS                83 83  110/ 22/ 24 1018.4F
SETTLEMENT POINT           80      90/ 14/ 15 1019.5F

$$





USA.gov is the U.S. government's official web portal to all federal, state and local government web resources and services.